Temperature
20 21 22 22 22 21 20 19 19 20 20 20 19 18 18 19 19 18 18 19 19 19 19 19 18 18 18 18 18 17 17 17 17 17 16 16 16 16 16 16 16 16 16 16
21 21 21 21 21 21 20 20 20 20 20 19 19 19 18 18 18 18 18 18 18 19 19 19 18 18 18 18 17 17 17 17 17 16 16 16 16 16 16 15 15 15 15 15
19 20 21 21 21 20 20 20 19 20 20 18 18 17 18 18 18 18 18 19 19 19 19 19 18 18 18 18 18 17 17 17 16 16 16 16 16 15 15 15 15 15 15 15
17 20 21 20 20 20 19 19 18 19 18 18 18 18 18 18 18 18 18 19 19 19 19 19 18 18 18 17 17 17 16 16 16 16 15 15 15 15 15 15 15 14 14 14
16 18 19 20 20 19 19 19 18 18 18 17 18 18 17 18 18 19 19 19 19 19 18 18 18 18 17 17 17 16 16 16 16 15 15 15 15 15 15 15 14 14 14 14
15 18 19 20 20 19 19 19 18 17 17 17 17 17 17 18 18 18 18 19 18 18 18 18 18 17 17 17 17 16 16 16 16 15 15 15 15 15 14 14 14 14 14 14
16 17 18 18 18 20 20 19 18 18 17 17 17 18 19 19 18 18 18 18 18 18 17 17 17 17 17 17 16 16 16 16 15 15 15 15 15 15 14 14 14 14 14 13
14 17 18 18 18 18 18 18 18 18 18 18 18 18 18 19 18 18 18 17 17 17 17 17 17 17 17 16 16 16 15 15 15 15 15 14 14 14 14 14 14 13 13 13
14 16 16 16 17 19 19 18 18 18 18 18 18 18 18 18 18 17 17 17 17 17 17 16 16 16 16 16 15 15 15 15 15 15 14 14 14 14 14 13 13 13 13 13
14 15 15 17 17 18 18 18 19 19 19 18 18 18 17 17 17 17 17 17 16 16 16 16 16 15 15 15 15 15 15 15 14 14 14 14 13 13 13 13 13 13 13 12
14 14 15 16 17 17 18 18 18 18 18 18 18 17 17 17 17 17 16 16 16 16 16 15 15 15 15 15 14 14 14 14 14 14 14 13 13 13 13 13 12 12 12 12
14 15 14 16 17 17 17 17 17 17 17 17 17 17 16 16 16 16 16 16 16 15 15 15 14 14 14 14 14 14 14 13 13 13 13 13 13 13 12 12 12 12 12 12
16 16 16 16 16 17 17 17 17 17 17 16 16 16 16 16 16 16 16 15 15 15 14 14 14 14 13 13 13 13 13 13 12 12 12 12 12 12 12 12 12 12 12 12
16 16 15 16 16 16 16 16 16 16 16 16 15 15 15 15 15 15 15 15 15 14 14 14 13 13 13 13 13 13 12 12 12 12 12 12 11 11 11 11 11 12 12 12
16 16 16 16 16 16 16 16 16 15 15 15 15 15 15 14 14 14 14 14 14 13 13 13 13 13 12 12 12 12 12 12 11 11 11 11 11 11 11 11 11 11 11 12
16 16 16 15 15 15 15 15 15 15 15 14 14 14 14 14 14 14 13 13 13 13 12 12 12 12 12 12 12 11 11 11 11 11 11 11 10 10 10 10 10 11 11 11
15 15 15 15 15 15 15 15 15 14 14 14 14 14 13 13 13 13 13 12 12 12 12 12 12 12 11 11 11 11 11 11 11 10 10 10 10 10 10 10 10 10 10 10
16 16 15 15 15 15 14 14 14 14 14 14 13 13 13 13 13 12 12 12 12 11 11 11 11 11 11 11 11 10 10 10 10 10 10 10 9 10 10 10 10 10 10 10
15 15 15 15 15 14 14 14 14 14 14 13 13 13 13 12 12 12 12 12 11 11 11 11 10 10 10 10 10 10 10 10 10 10 9 9 9 9 9 9 9 9 9 10
15 15 14 14 14 14 14 14 14 13 13 13 13 12 12 12 12 11 11 11 11 11 11 10 10 10 10 10 10 10 10 9 9 9 9 9 9 9 9 9 9 9 9 9
14 14 14 14 14 14 13 13 13 13 12 12 12 12 12 11 11 11 11 11 11 11 10 10 10 10 10 10 9 9 9 9 9 9 9 9 8 8 8 8 8 9 9 9
14 14 13 13 13 13 13 13 13 12 12 12 12 11 11 11 11 11 11 11 11 10 10 10 10 10 9 9 9 9 9 9 9 9 9 8 8 8 8 8 8 8 8 8
13 13 13 13 13 13 12 12 12 12 12 12 11 11 11 11 11 10 10 10 10 10 10 10 9 9 9 9 9 9 9 9 8 8 8 8 8 8 8 8 8 8 8 8
13 12 12 12 12 12 12 12 12 12 11 11 11 11 11 10 10 10 10 10 10 9 9 9 9 9 9 9 9 9 8 8 8 8 8 8 8 8 8 8 8 8 8 8
12 12 12 12 12 12 11 11 11 11 11 11 11 10 10 10 10 10 10 9 9 9 9 9 9 9 9 9 8 8 8 8 8 8 8 8 8 8 8 8 8 8 8 7
12 12 11 11 11 11 11 11 11 11 11 11 11 10 10 10 10 9 9 9 9 9 9 9 9 9 9 8 8 8 8 8 8 8 8 7 7 7 7 7 7 7 7 7
11 11 11 11 11 11 11 11 11 11 10 10 10 10 10 9 9 9 9 9 9 9 9 9 8 8 8 8 8 8 8 8 7 7 7 7 7 7 7 7 7 7 7 7
Wind_Speed
3 3 3 3 4 5 6 8 8 8 7 8 7 7 6 5 6 6 5 5 5 5 4 4 4 4 3 3 3 3 3 3 3 2 1 1 1 1 1 1 1 0 0 1
1 1 2 2 2 5 4 4 5 4 6 5 3 4 4 5 6 6 6 6 6 5 5 4 5 5 4 4 3 3 3 3 3 2 2 2 2 1 1 1 0 1 0 0
2 3 2 3 4 5 3 3 6 7 7 3 3 5 6 6 6 7 6 6 6 6 6 5 4 5 5 4 3 3 3 3 3 3 2 2 2 1 1 1 1 0 0 0
2 1 4 7 2 5 4 2 3 4 3 4 5 4 3 3 5 5 5 5 5 4 4 3 3 4 4 4 3 3 3 3 3 3 3 2 2 2 2 1 1 1 1 1
4 3 4 5 1 3 4 3 3 3 2 3 4 3 2 1 3 4 4 4 4 4 3 3 3 3 3 4 4 4 4 4 4 4 4 3 3 3 2 2 2 2 2 2
4 4 6 6 2 2 4 2 2 2 4 4 5 2 4 3 2 2 2 2 2 2 2 2 2 3 3 4 4 5 5 5 4 4 4 4 4 3 2 2 2 2 2 2
4 4 6 5 3 2 3 5 2 3 3 5 5 5 3 2 2 2 2 2 2 3 2 2 2 3 3 2 4 5 3 3 3 4 4 4 3 2 2 2 2 1 2 2
4 3 6 2 2 4 5 2 1 2 3 5 4 2 2 3 3 3 3 2 3 3 2 0 1 3 2 2 3 2 2 2 3 3 3 3 3 3 2 2 2 2 2 2
6 6 4 2 3 2 2 1 2 3 3 5 4 3 2 2 3 3 3 3 2 3 2 1 1 2 1 2 2 1 1 3 3 2 2 3 3 3 2 2 2 3 2 3
1 4 4 2 2 2 1 1 2 3 3 4 4 4 4 3 3 3 3 2 2 3 2 1 1 0 1 1 1 0 2 3 2 2 2 2 2 3 3 3 3 3 3 3
2 4 3 3 2 1 2 2 2 1 1 3 5 4 4 3 3 3 3 2 2 3 2 1 1 0 1 1 1 1 1 2 2 2 2 2 2 3 4 4 5 5 4 4
5 6 4 4 3 1 0 0 2 2 2 2 3 4 3 3 2 3 3 2 2 2 1 1 1 0 1 1 0 1 1 2 2 1 1 1 1 2 2 3 4 6 6 6
4 2 3 2 1 1 1 1 2 3 4 3 2 3 4 3 1 2 2 2 2 2 1 1 0 1 2 1 0 0 1 1 1 1 1 1 1 1 3 3 3 3 5 5
2 2 0 0 1 1 2 2 4 5 4 4 3 3 4 3 2 2 2 2 2 1 1 0 0 2 2 1 1 1 1 1 1 1 2 2 2 2 2 3 3 4 3 4
1 1 3 2 2 3 3 4 6 5 4 4 3 3 4 4 2 1 1 1 2 2 1 0 1 3 3 1 1 1 1 1 1 1 1 2 2 2 2 3 3 3 3 3
1 3 4 4 4 3 4 4 4 3 2 3 3 2 3 3 2 1 1 1 2 1 1 0 1 3 2 1 1 1 1 2 2 1 1 1 2 2 2 3 3 3 4 4
4 3 3 4 3 3 2 2 3 2 2 3 3 2 3 3 3 2 1 1 1 1 0 0 2 2 2 1 1 1 1 2 2 1 1 2 2 3 3 3 4 4 4 5
6 6 6 6 6 4 3 2 2 2 2 2 3 3 3 3 2 0 1 1 2 2 2 2 2 2 2 1 1 1 1 1 1 1 2 2 3 3 3 4 4 5 4 4
3 4 4 4 4 4 4 3 2 2 2 2 3 2 2 1 1 0 1 2 2 2 3 2 2 2 2 2 2 1 1 1 2 2 2 2 2 3 3 3 4 4 4 3
3 4 4 4 3 3 3 3 3 3 2 3 3 3 2 1 1 1 1 1 1 2 2 2 2 2 2 2 2 1 1 1 2 2 2 2 2 3 3 4 4 4 4 4
3 4 4 4 3 3 4 4 4 3 2 3 3 2 1 0 0 1 1 1 3 3 2 1 1 2 2 2 2 1 1 1 2 2 2 2 3 3 3 4 4 4 4 4
3 3 3 4 4 2 2 2 3 3 2 2 2 2 2 1 1 1 1 2 2 2 1 1 1 2 2 2 1 1 2 2 2 2 2 2 3 3 4 4 4 4 4 3
2 3 3 3 3 2 1 2 3 3 2 2 2 2 2 1 1 1 2 3 2 2 1 1 2 2 3 2 1 2 2 2 2 2 3 3 3 3 4 4 4 4 3 3
2 2 2 2 3 3 2 1 1 1 2 1 1 2 3 1 1 1 2 2 2 2 1 2 2 2 2 1 1 2 2 2 2 3 3 3 3 3 3 3 3 3 3 3
2 2 2 3 2 1 2 1 1 1 1 1 1 0 1 2 2 1 1 1 1 1 1 2 2 2 1 1 2 2 2 2 3 3 3 3 3 3 3 3 3 3 3 3
2 1 1 2 2 2 2 2 1 1 1 0 0 1 0 0 0 0 0 1 2 2 2 2 2 2 1 1 2 2 2 3 3 3 3 3 3 3 3 3 3 3 3 3
2 1 1 1 1 1 1 2 2 2 2 2 1 1 1 0 0 1 1 1 2 2 2 2 2 2 2 2 2 2 3 3 3 3 3 3 3 3 3 3 2 2 2 2
Wind_Direction
220 229 181 188 195 180 180 184 185 218 222 243 220 201 189 176 161 157 163 168 178 187 192 190 182 174 171 174 177 176 173 171 183 187 180 164 155 154 141 165 195 190 61 343
308 309 175 191 219 183 189 184 197 199 243 243 192 151 154 164 168 178 190 191 192 191 190 194 192 189 190 192 190 175 176 199 197 182 176 184 187 176 162 175 160 77 119 271
238 298 47 270 239 193 186 195 178 202 225 183 161 175 178 182 185 194 199 199 198 198 196 200 201 197 203 207 186 175 192 204 198 195 201 206 196 177 189 197 185 158 297 273
151 94 225 247 253 171 167 219 214 211 212 180 179 173 164 169 185 197 200 193 194 196 198 205 202 198 197 191 181 178 197 212 206 200 205 200 186 201 217 202 195 210 237 245
131 178 264 289 230 166 162 264 223 194 166 132 119 71 2 222 192 198 196 196 197 193 193 189 193 192 181 183 186 192 203 211 211 204 204 197 201 211 218 198 207 223 233 232
130 163 224 245 277 199 125 279 281 172 166 155 128 147 252 234 191 179 166 164 170 160 149 168 193 176 171 193 199 216 217 216 210 204 205 213 211 210 220 206 216 225 247 249
151 197 252 264 295 99 157 242 265 174 167 165 178 200 208 172 165 155 147 143 137 130 140 180 179 153 170 208 230 239 230 215 212 211 209 214 211 207 204 208 211 225 251 276
147 178 248 283 113 172 217 248 176 160 164 167 173 154 135 147 157 146 134 124 127 130 134 174 151 148 176 244 257 247 227 222 221 224 221 212 206 215 204 194 211 243 256 284
187 211 257 259 220 243 167 165 195 172 176 170 164 163 156 159 154 145 138 139 135 136 126 68 88 130 166 272 291 241 212 226 228 227 222 213 205 214 216 201 210 237 247 266
253 284 299 305 349 1 12 195 193 174 170 165 165 164 159 155 148 136 134 143 141 133 127 91 359 82 214 298 329 333 243 245 226 215 229 235 219 214 218 221 223 227 232 252
270 284 331 330 326 339 358 56 96 94 134 153 146 151 158 159 160 158 155 150 146 157 165 192 226 292 334 356 52 23 314 274 249 231 227 242 248 241 234 232 222 216 226 230
224 227 205 255 279 307 14 78 122 118 83 96 132 146 143 153 170 160 160 142 136 155 169 200 217 296 319 310 161 137 331 318 267 239 226 224 259 305 307 261 246 232 229 229
226 225 208 239 276 315 149 104 87 107 129 123 117 132 131 134 149 141 146 150 169 186 195 198 253 327 323 324 342 168 263 285 297 276 256 242 234 254 298 317 298 257 245 243
187 127 106 277 283 11 101 95 80 76 88 107 115 121 123 117 115 135 164 180 171 147 137 91 21 325 321 333 354 314 290 294 284 260 258 256 252 253 257 269 291 299 286 255
248 172 170 137 91 74 81 87 84 76 77 80 99 122 128 129 135 158 173 136 108 100 85 60 358 315 325 333 332 321 310 288 271 261 253 254 264 270 275 274 273 281 291 287
54 88 117 123 125 111 93 94 101 103 99 103 108 118 128 126 119 91 68 107 126 172 233 294 291 296 314 317 324 321 300 304 306 269 262 267 269 268 273 272 272 272 269 271
128 142 148 144 144 143 141 142 140 143 126 121 136 123 103 94 78 50 24 40 133 172 4 320 289 310 318 305 283 292 301 302 321 298 272 269 275 270 266 265 268 271 273 268
177 184 180 170 166 163 158 131 117 126 145 154 129 115 111 117 130 145 348 36 52 33 1 331 320 334 346 337 305 282 289 292 289 276 275 272 270 270 270 271 274 276 283 279
170 169 166 164 164 158 154 146 143 137 128 124 126 135 140 140 148 142 80 76 57 358 321 330 347 11 347 327 349 323 303 301 310 305 292 291 291 288 282 279 280 280 281 280
143 144 143 142 143 142 146 138 132 118 114 120 119 108 83 39 68 78 75 60 283 270 288 332 355 348 329 318 346 322 302 287 290 296 298 294 292 292 288 285 284 285 283 278
136 138 136 137 137 138 139 139 133 126 122 124 128 135 142 319 47 104 100 339 311 317 329 350 349 324 316 323 336 316 301 290 289 289 291 292 295 295 292 289 288 286 283 278
125 128 130 129 124 123 128 132 129 125 117 113 126 133 123 66 5 354 291 252 279 314 336 318 305 312 325 334 316 307 298 292 290 288 289 291 290 290 292 294 291 289 287 282
126 128 130 135 139 138 112 114 125 133 143 146 158 172 168 184 207 203 290 298 301 312 317 283 306 326 336 333 304 296 292 290 290 288 288 287 283 282 285 289 290 291 289 286
111 118 123 119 117 121 131 139 114 146 159 164 182 181 166 156 324 296 255 288 320 324 303 288 314 336 343 325 314 300 291 288 289 290 290 289 288 288 287 290 293 299 301 301
121 118 117 121 133 177 190 144 97 88 101 100 75 88 181 179 194 249 289 308 329 344 319 312 327 339 335 320 312 300 289 284 290 294 293 293 291 290 291 298 301 302 306 306
125 146 169 186 189 189 179 151 147 171 151 135 359 327 359 48 170 209 288 306 310 320 316 316 320 331 318 308 303 298 293 295 298 299 300 300 295 291 291 296 302 302 301 303
97 95 87 58 39 148 156 155 166 185 189 195 224 250 260 296 295 280 307 324 325 320 313 313 310 301 298 303 305 305 306 308 310 310 309 308 305 298 294 294 296 302 306 310
Height
1489 1485 1486 1487 1488 1491 1495 1499 1505 1500 1498 1490 1487 1487 1488 1490 1492 1494 1496 1498 1500 1501 1503 1504 1505 1506 1507 1507 1508 1510 1510 1511 1511 1512 1512 1513 1513 1513 1513 1513 1513 1513 1512 1512
1490 1486 1485 1488 1486 1487 1490 1491 1493 1492 1492 1483 1484 1486 1488 1489 1490 1492 1493 1495 1497 1499 1501 1502 1503 1504 1505 1505 1506 1507 1508 1508 1509 1510 1510 1510 1511 1511 1511 1511 1511 1510 1510 1509
1499 1491 1487 1495 1487 1486 1487 1486 1487 1491 1486 1482 1484 1485 1486 1487 1488 1489 1490 1492 1494 1496 1497 1499 1501 1502 1502 1503 1504 1505 1506 1506 1507 1507 1508 1508 1508 1508 1508 1508 1508 1508 1507 1507
1502 1496 1505 1491 1479 1479 1482 1482 1481 1481 1480 1480 1481 1483 1484 1485 1486 1487 1489 1490 1492 1494 1496 1497 1499 1500 1501 1501 1502 1502 1503 1503 1504 1504 1505 1505 1505 1505 1506 1505 1505 1505 1504 1504
1506 1506 1499 1486 1479 1479 1482 1483 1479 1480 1480 1481 1481 1483 1484 1485 1485 1486 1487 1489 1491 1493 1494 1496 1497 1497 1498 1499 1499 1500 1500 1501 1501 1502 1502 1502 1502 1502 1502 1502 1502 1502 1502 1502
1503 1503 1504 1487 1476 1475 1479 1486 1478 1478 1479 1480 1481 1487 1485 1483 1483 1484 1486 1488 1489 1491 1493 1494 1494 1495 1496 1496 1496 1497 1497 1498 1498 1499 1499 1500 1499 1499 1499 1499 1499 1499 1499 1499
1500 1500 1493 1480 1475 1475 1488 1486 1476 1476 1477 1479 1479 1480 1481 1481 1482 1483 1485 1487 1488 1489 1491 1492 1493 1493 1493 1494 1494 1494 1495 1495 1496 1496 1496 1497 1497 1497 1496 1496 1496 1496 1496 1496
1499 1499 1494 1476 1475 1479 1479 1474 1474 1475 1476 1477 1477 1478 1479 1479 1480 1482 1483 1485 1487 1488 1489 1490 1491 1491 1491 1491 1492 1492 1492 1492 1493 1493 1493 1493 1493 1493 1493 1493 1493 1493 1493 1493
1488 1487 1477 1474 1474 1473 1473 1473 1473 1474 1474 1475 1476 1477 1478 1479 1480 1481 1482 1484 1485 1487 1487 1488 1489 1489 1489 1489 1489 1489 1489 1489 1489 1489 1489 1490 1490 1490 1490 1489 1489 1490 1490 1489
1483 1478 1475 1473 1472 1472 1472 1472 1473 1473 1473 1474 1474 1476 1477 1478 1480 1480 1482 1483 1484 1485 1485 1486 1486 1487 1487 1487 1487 1486 1486 1485 1485 1485 1486 1486 1487 1487 1487 1486 1487 1486 1486 1486
1481 1477 1474 1472 1472 1472 1472 1472 1472 1472 1473 1473 1473 1475 1476 1477 1479 1480 1481 1482 1483 1483 1484 1484 1484 1485 1485 1485 1484 1483 1482 1481 1481 1482 1482 1482 1483 1483 1483 1484 1484 1483 1483 1483
1478 1473 1474 1472 1472 1472 1472 1471 1471 1471 1472 1473 1473 1474 1476 1477 1478 1479 1481 1481 1481 1482 1483 1483 1483 1482 1483 1482 1482 1480 1479 1478 1477 1478 1478 1479 1479 1479 1479 1480 1480 1480 1480 1480
1470 1471 1471 1471 1471 1472 1472 1471 1471 1471 1471 1472 1473 1474 1475 1476 1478 1478 1480 1480 1480 1481 1481 1481 1481 1481 1481 1480 1479 1478 1477 1476 1475 1475 1475 1475 1475 1475 1475 1476 1476 1476 1476 1476
1469 1470 1470 1470 1471 1471 1471 1471 1471 1471 1471 1472 1473 1474 1475 1476 1477 1478 1478 1479 1479 1479 1480 1479 1479 1479 1479 1478 1477 1476 1475 1475 1474 1474 1473 1473 1473 1473 1473 1472 1471 1471 1472 1472
1468 1469 1469 1470 1471 1471 1471 1471 1471 1471 1472 1472 1473 1474 1475 1476 1477 1477 1477 1477 1478 1478 1478 1477 1477 1477 1477 1476 1476 1475 1474 1473 1472 1472 1471 1471 1470 1470 1469 1469 1468 1468 1467 1467
1468 1469 1469 1469 1470 1471 1471 1472 1472 1472 1472 1472 1473 1475 1475 1475 1476 1476 1476 1477 1477 1476 1476 1475 1475 1475 1475 1474 1473 1472 1472 1471 1470 1469 1468 1468 1467 1467 1466 1466 1465 1464 1463 1463
1467 1468 1468 1469 1470 1471 1472 1473 1473 1473 1473 1473 1474 1475 1475 1475 1475 1475 1475 1475 1475 1474 1474 1474 1473 1473 1473 1472 1471 1470 1469 1469 1468 1467 1466 1465 1465 1464 1463 1463 1462 1461 1460 1459
1466 1467 1468 1468 1469 1470 1471 1472 1473 1473 1473 1474 1475 1475 1474 1474 1474 1474 1474 1474 1473 1473 1473 1472 1472 1472 1471 1470 1469 1468 1468 1466 1465 1464 1463 1463 1462 1461 1460 1459 1458 1457 1456 1456
1465 1466 1467 1468 1469 1470 1471 1471 1473 1473 1474 1474 1474 1474 1474 1474 1474 1474 1473 1473 1472 1472 1471 1471 1471 1470 1469 1468 1468 1467 1466 1465 1464 1462 1461 1460 1459 1458 1457 1456 1455 1454 1453 1452
1463 1465 1466 1468 1469 1470 1470 1471 1472 1473 1473 1473 1474 1474 1473 1473 1473 1473 1473 1472 1472 1471 1470 1470 1469 1468 1468 1467 1466 1465 1464 1463 1462 1461 1459 1458 1457 1456 1454 1453 1452 1451 1450 1448
1462 1464 1465 1466 1468 1469 1470 1471 1472 1472 1473 1473 1473 1473 1473 1473 1473 1472 1471 1471 1471 1471 1470 1469 1468 1467 1467 1465 1464 1463 1462 1461 1460 1458 1457 1456 1454 1453 1452 1450 1449 1448 1447 1445
1462 1463 1464 1466 1467 1468 1470 1470 1471 1471 1472 1472 1472 1473 1473 1472 1472 1472 1471 1471 1470 1470 1469 1468 1467 1466 1465 1464 1462 1461 1460 1459 1458 1456 1455 1453 1452 1450 1449 1448 1447 1445 1444 1443
1462 1463 1464 1466 1467 1468 1469 1470 1470 1471 1472 1471 1471 1472 1472 1471 1471 1470 1470 1470 1469 1469 1468 1467 1466 1465 1464 1462 1461 1459 1458 1457 1456 1454 1453 1451 1450 1448 1447 1445 1444 1442 1441 1440
1462 1463 1465 1466 1467 1468 1468 1469 1470 1470 1471 1471 1471 1471 1471 1470 1470 1470 1469 1469 1468 1468 1467 1466 1465 1464 1462 1460 1459 1458 1456 1455 1454 1453 1451 1449 1448 1446 1444 1443 1441 1440 1438 1437
1462 1463 1465 1466 1466 1467 1468 1468 1468 1469 1470 1470 1470 1470 1470 1470 1469 1469 1468 1468 1467 1466 1465 1464 1463 1462 1460 1459 1458 1456 1454 1453 1452 1450 1449 1447 1445 1444 1442 1440 1439 1437 1436 1435
1463 1464 1464 1465 1466 1466 1467 1467 1467 1468 1469 1469 1469 1469 1469 1469 1468 1468 1467 1466 1466 1465 1464 1463 1462 1460 1459 1457 1456 1454 1453 1451 1449 1448 1446 1445 1443 1441 1440 1438 1437 1435 1434 1432
1463 1463 1464 1465 1465 1466 1466 1466 1467 1467 1468 1468 1468 1468 1468 1468 1467 1467 1466 1465 1464 1463 1462 1461 1460 1459 1457 1455 1454 1452 1451 1449 1447 1445 1444 1442 1440 1439 1437 1436 1434 1433 1432 1430